Regional Weather Roundup
Issued by NWS Grand Forks, ND

Home | Current Version | Previous Version | Text Only | Print | Product List | Glossary Off
Versions: 1 2 3 4 5 6 7 8 9 10 11 12 13 14 15 16 17 18 19 20 21 22 23 24 25 26 27 28 29 30 31 32 33 34 35 36 37 38 39 40 41 42 43 44 45 46 47 48 49 50

363
ASUS43 KFGF 242231
RWRFGF
PRAIRIE TO PINES  WEATHER ROUNDUP
NATIONAL WEATHER SERVICE EASTERN NORTH DAKOTA/GRAND FORKS ND
400 PM CST TUE JAN 24 2017

 **SATELLITE DATA USED TO AUGMENT SKY COVER AT AUTOMATED STATIONS**
 *****  WEATHER ACROSS EASTERN NORTH DAKOTA  *****

CITY           SKY/WX    TMP DP  RH WIND       PRES   REMARKS
GRAND FORKS    CLOUDY    28  21  75 N3        29.87R
GRAND FRKS AFB CLOUDY    27  22  80 CALM      29.87R
DEVILS LAKE    CLOUDY    24  21  88 NW8       29.87R WCI  15
FARGO          CLOUDY    30  22  72 NW8       29.87R WCI  22
WAHPETON ARPT  CLOUDY    28  25  86 N14       29.84R WCI  17
$$

 ***** WEATHER ACROSS CENTRAL AND WESTERN NORTH DAKOTA  *****

CITY           SKY/WX    TMP DP  RH WIND       PRES   REMARKS
BISMARCK       CLOUDY    27  19  72 N8        29.88R WCI  19
MINOT          CLOUDY    22  17  81 NW18      29.88R WCI   7
JAMESTOWN      CLOUDY    25  21  85 N13       29.84S WCI  14
MINOT AFB      PTSUNNY   19  16  86 NW17      29.88R WCI   4
GARRISON         N/A     22  17  81 NW15      29.87R WCI   9
WILLISTON      FLURRIES  19  14  81 NW12      29.93R WCI   7
DICKINSON      FAIR      20  13  74 NW15      29.84R WCI   6
HETTINGER      CLOUDY    21  15  78 NW16      29.85R WCI   7
$$

 *****  OTHER AIRPORT OBSERVATIONS IN OUR AREA  *****

CITY           SKY/WX    TMP DP  RH WIND       PRES   REMARKS
WALHALLA       NOT AVBL
GRAFTON AIRPOR CLOUDY    28  25  86 NW6       29.90R WCI  22
VALLEY CITY AR CLOUDY    23  23 100 NW13      29.87R WCI  11
CANDO          NOT AVBL
CAVALIER APRT  CLOUDY    28  25  86 N8        29.88R WCI  20
GWINNER        MOCLDY    28  25  86 N13       29.84S WCI  18
SHEYENNE NWR     N/A     27  20  75 N6        29.95S WCI  20
ROLLA            N/A    N/A N/A N/A MISG        N/A
 ***** THE ABOVE OBSERVATIONS ARE NON NWS ARE NOT QUALITY
       CONTROLLED AND MAY MIS-REPORT RAIN FOR SNOW...
$$

  *****  WEATHER ACROSS NORTHERN MINNESOTA  *****

CITY           SKY/WX    TMP DP  RH WIND       PRES   REMARKS
FLAG ISLAND    CLOUDY    27  23  86 SW5       29.84R WCI  21
WARROAD        CLOUDY    27  23  86 W6        29.85R WCI  20
ROSEAU         MOCLDY    28  23  80 SW6       29.85R WCI  22
HALLOCK        CLOUDY    28  27  93 NW3       29.87R
THF RVR FALLS    N/A     25  21  86 MISG        N/A
BAUDETTE       CLOUDY    26  20  77 SW3       29.84R
WASKISH        CLOUDY    25  21  86 CALM      29.85S
CROOKSTON      CLOUDY    27  23  86 NW3       29.89R
STEPHEN NDAWN    N/A     28  25  86 W3          N/A
GREENBUSH NDAW   N/A     27  25  93 W6          N/A  WCI  20
$$
  *****  WEATHER ACROSS CENTRAL AND WEST MINNESOTA  *****

CITY           SKY/WX    TMP DP  RH WIND       PRES   REMARKS
FOSSTON        CLOUDY    23  19  86 CALM      29.86R
BEMIDJI        CLOUDY    26  22  84 NW5       29.84R WCI  21
PARK RAPIDS    CLOUDY    31  22  69 CALM      29.82R
ELBOW LAKE     CLOUDY    31  27  85 E5        29.81R FOG
WADENA         CLOUDY    28  25  86 N10       29.79F WCI  19
DETROIT LAKES  CLOUDY    28  27  93 N7        29.83F WCI  21
MOORHEAD       CLOUDY    27  21  80 NW9       29.88R WCI  17
FERGUS FALLS   PTSUNNY   30  25  80 N8        29.85S WCI  23
MORRIS MN      CLOUDY    34  28  80 NE6       29.79S
STAPLES        CLOUDY    28  25  86 N5        29.79F WCI  23
$$
  *****  WEATHER ELSEWHERE ACROSS MINNESOTA  *****

CITY           SKY/WX    TMP DP  RH WIND       PRES   REMARKS
DULUTH         CLOUDY    31  25  78 CALM      29.83R
INTRNTL FALLS  CLOUDY    26  20  77 NW9       29.84R WCI  17
ELY            CLOUDY    28  25  86 CALM      29.82R
CLOQUET        CLOUDY    30  25  80 CALM      29.83S
WHEATON        CLOUDY    30  27  86 N9        29.84R WCI  22
BRAINERD       CLOUDY    29  24  82 N7        29.81F WCI  22
HIBBING        CLOUDY    28  24  85 NE6       29.82R WCI  22
ALEXANDRIA     CLOUDY    31  26  82 NE8       29.79R WCI  23
SAINT CLOUD    CLOUDY    31  26  82 E3        29.80S
MINNEAPOLIS    CLOUDY    32  26  78 E8        29.81S WCI  25
$$

  *****  WEATHER ACROSS SOUTH DAKOTA  *****

CITY           SKY/WX    TMP DP  RH WIND       PRES   REMARKS
SIOUX FALLS    LGT SNOW  30  29  96 NE15      29.68S FOG     WCI  19
BROOKINGS      CLOUDY    28  27  93 E13       29.72R WCI  18
WATERTOWN      CLOUDY    29  25  85 NE9       29.74S WCI  20
HURON          LGT SNOW  30  29  96 NE10      29.76R FOG     WCI  21
SISSETON         N/A     30  29  96 N13       29.81R WCI  20
ABERDEEN       LGT SNOW  25  20  81 N15       29.82R WCI  13
MITCHELL       LGT SNOW  31  30  96 NE15      29.72S VSB 3/4 WCI  20
PIERRE         FOG       23  20  88 N23       29.77R VSB 1/2 WCI   7
MOBRIDGE       LGT SNOW  24  18  77 N14       29.82R WCI  12
RAPID CITY     LGT SNOW  20  17  88 N17       29.79R FOG     WCI   5
$$

  *****  SOME WEATHER IN NEARBY STATES *****

CITY           SKY/WX    TMP DP  RH WIND       PRES   REMARKS
GLASGOW MT     CLOUDY    19  12  74 NW14      29.93R WCI   6
GREAT FALLS MT FAIR      28  16  60 W5        29.88R WCI  23
CHEYENNE WY    FAIR      17  12  80 N10       29.61R WCI   5
SCOTTSBLUFF NE CLOUDY    23  14  68 N16       29.72R WCI  10
OMAHA NE       FLURRIES  36  28  73 E16       29.54F
DES MOINES IA  CLOUDY    33  30  88 E12G17    29.63S WCI  24
DAVENPORT IA   CLOUDY    35  32  88 E14       29.73F
CHICAGO IL     CLOUDY    36  31  82 CALM      29.82F
EAU CLAIRE WI  CLOUDY    34  29  82 E5        29.81S
LA CROSSE WI   CLOUDY    37  30  75 E3        29.80F
$$

  *****  SOME NATIONAL WEATHER *****

CITY           SKY/WX    TMP DP  RH WIND       PRES   REMARKS
LA GUARDIA NY  LGT RAIN  40  36  86 NW14G21   29.36R
RALEIGH NC     FAIR      59  37  44 NW9G25    29.68R
ATLANTA GA     FAIR      61  32  33 NW9       29.85R
NEW ORLEANS LA FAIR      67  49  52 S10       29.91S
OKLAHOMA CITY  FAIR      74  33  22 SW22G30   29.49R
ALBUQUERQUE NM FAIR      40  13  33 W23G37    29.75R
SALT LAKE CITY PTSUNNY   31  25  78 CALM      29.84R
LOS ANGELES CA PTSUNNY   54  42  64 W10       30.01F
BOISE ID       FAIR      33  23  66 NW14      29.89R WCI  23
SEATTLE WA     PTSUNNY   42  36  79 CALM      30.13F
$$

*** WEATHER ACROSS MANITOBA...SASKATCHEWAN AND ONTARIO ***
                ***ONTARIO***

CITY           SKY/WX    TMP DP  RH WIND       PRES   REMARKS
GERALDTON      CLOUDY    34  32  93 NW3       29.78R FOG
THUNDER BAY    CLOUDY    36  28  75 W8        29.82R
SIOUX LOOKOUT  FRZ DRZL  27  25  93 W5        29.81R WCI  21
TORONTO        CLOUDY    34  27  75 N8        29.67R
BIG TROUT LK   CLOUDY    30  28  93 VRB2      29.79S
PICKLE LAKE    CLOUDY    32  32 100 W3        29.77R
DRYDEN         CLOUDY    25  23  93 SW3       29.81R
KENORA         FLURRIES  25  23  93 S8        29.81R WCI  16
$$
                *** MANITOBA***

CITY           SKY/WX    TMP DP  RH WIND       PRES   REMARKS
BRANDON        CLOUDY    23  18  80 NW12      29.86R WCI  12
DAUPHIN        FLURRIES  21  18  86 E6        29.90R WCI  14
ISLAND LAKE    FLURRIES  28  28 100 N3        29.80R
PILOT MOUND      N/A     23  19  86 NW7         N/A  WCI  15
THE PAS        CLOUDY    14   7  73 NW12      29.94R WCI   0
THOMPSON       FLURRIES  16  12  86 NW5       29.90R WCI   9
WINNIPEG       CLOUDY    25  21  86 NW15      29.86R WCI  12
LYNN LAKE      FLURRIES   9   7  92 NW6       29.90R WCI  -1
CHURCHILL      FLURRIES  12  10  92 NW7       29.94R WCI   2
GILLAM         FLURRIES  18  14  86 N6        29.89S WCI   9
$$
                ***SASKATCHEWAN***

CITY           SKY/WX    TMP DP  RH WIND       PRES   REMARKS
ESTEVAN        FLURRIES  18  14  86 W13       29.91R WCI   4
KINDERSLEY     FLURRIES  12   9  85 NW6       29.94R WCI   3
LLOYDMINSTER   MOSUNNY    5   3  92 CALM      29.94R
PRINCE ALBERT  FLURRIES  12   5  73 NW5       29.98R WCI   4
REGINA         FLURRIES  18  12  79 N10       29.92R WCI   6
YORKTON        CLOUDY    16  12  86 NW9       29.90R WCI   4
N. BATTLEFORD  MOSUNNY    9   3  78 N3        30.00S
LA RONGE       PTCLDY    12   5  73 W2        29.97R
SASKATOON      CRYSTALS   9   3  78 NW8       29.99R WCI  -4
SWIFT CURRENT  LGT SNOW  10   9  92 NW10      29.90R WCI  -3
$$
NOTE: THESE ARE AUTOMATED STATIONS WITH LIMITED QUALITY CONTROL
      "FAIR" INDICATES FEW OR NO CLOUDS BELOW 12,000 FEET WITH NO
      SIGNIFICANT WEATHER AND/OR OBSTRUCTIONS TO VISIBILITY.
      SKY/WX - SKY CONDITION AND SIGNIFICANT WEATHER.
      TMP - AIR TEMPERATURE.    DP   - DEWPOINT TEMPERATURE.
      RH  - RELATIVE HUMIDITY.  PRES - PRESSURE.
      HX  - HEAT INDEX.         WCI  - WIND CHILL INDEX.
$




USA.gov is the U.S. government's official web portal to all federal, state and local government web resources and services.